Tracking 31011 objects as of 13-Jul-2025
HD Live streaming from Space Station
objects crossing your sky now

CZ-6A DEB

Track CZ-6A DEB now!
10-day predictions


NORAD ID: 56657
Int'l Code: 2022-151AGH
Perigee: 834.5 km
Apogee: 1,095.7 km
Inclination: 98.9 °
Period: 104.2 minutes
Semi major axis: 7336 km
RCS: Unknown
Launch date: November 11, 2022
Source: People's Republic of China (PRC)
Launch site: Taiyaun Space Center, China (TSC)

Note: This is SATELLITE DEBRIS
Your satellite tracking list
Your tracking list is empty




NASA's NSSDC Master Catalog

Two Line Element Set (TLE):
1 56657U 22151AGH 25191.68849240  .00000170  00000-0  17568-3 0  9997
2 56657  98.9088 152.7204 0178022 336.6921  22.6233 13.81659168116491
Source of the keplerian elements: AFSPC